Regional Weather Roundup
Issued by NWS

Home | Current Version | Previous Version | Text Only | Print | Product List | Glossary On
Versions: 1 2 3 4 5 6 7 8 9 10 11 12 13 14 15 16 17 18 19 20 21 22 23 24 25 26 27 28 29 30 31 32 33 34 35 36 37 38 39 40 41 42 43 44 45 46 47 48 49 50
000
ASUS45 KPSR 050810
RWRAZ

ARIZONA REGIONAL HOURLY WEATHER ROUNDUP
NATIONAL WEATHER SERVICE PHOENIX AZ
100 AM MST THU MAR 05 2015

NOTE: FAIR INDICATES FEW OR NO CLOUDS BELOW 12,000 FEET WITH NO
SIGNIFICANT WEATHER AND/OR OBSTRUCTIONS TO VISIBILITY.

AZZ001>003-036-050900-
NORTHWEST ARIZONA

CITY           SKY/WX    TMP DP  RH WIND       PRES   REMARKS
BULLHEAD CITY  CLEAR     55  27  33 N20       30.24S
KINGMAN        CLEAR     33  26  75 SE5       30.27R WCI  29
$$

AZZ004>008-015-016-018-050900-
NORTH CENTRAL ARIZONA

CITY           SKY/WX    TMP DP  RH WIND       PRES   REMARKS
GRAND CANYON   PTCLDY    11   9  92 CALM      30.30R
PRESCOTT       CLEAR     29  20  69 SW5       30.25R WCI  24
FLAGSTAFF      NOT AVBL
PAYSON         CLEAR     36  14  41 CALM      30.25R
PAGE           CLEAR     35  22  58 SE3       30.30R
$$

AZZ009>014-017-050900-
NORTHEAST ARIZONA

CITY           SKY/WX    TMP DP  RH WIND       PRES   REMARKS
WINSLOW        CLEAR     25  19  78 SW5       30.31R WCI  19
SAINT JOHNS    CLEAR     24  15  68 S3        30.28R
WINDOW ROCK    CLEAR     23  14  68 CALM      30.28R
SHOW LOW       CLEAR     21  14  73 NE3       30.28R
$$

AZZ023-050900-
GREATER PHOENIX AREA

CITY           SKY/WX    TMP DP  RH WIND       PRES   REMARKS
PHOENIX        CLEAR     55  37  50 CALM      30.16R
BUCKEYE        CLEAR     48  41  76 CALM      30.17R
LUKE AFB       CLEAR     50  39  66 NW5       30.16R
DEER VALLEY    CLEAR     50  30  46 N6        30.17R
SCOTTSDALE     CLEAR     58  22  24 N6        30.18R
MESA-GATEWAY   CLEAR     45  39  81 E6        30.18S
$$

AZZ027-028-050900-
SOUTHWEST MARICOPA COUNTY AND PINAL COUNTY

CITY           SKY/WX    TMP DP  RH WIND       PRES   REMARKS
CASA GRANDE    CLEAR     46  37  71 CALM      30.17S
GILA BEND      FAIR      49  42  76 S5        30.17R
$$

AZZ503-504-507>509-050900-
SOUTHEAST ARIZONA

CITY           SKY/WX    TMP DP  RH WIND       PRES   REMARKS
TUCSON         CLEAR     46  36  68 CALM      30.19R
DAVIS-MONTHAN  CLEAR     43  37  78 S2        30.17R
NOGALES        CLEAR     36  28  73 NE3       30.18R
SIERRA VISTA   CLEAR     39  30  70 S3        30.19S
DOUGLAS        CLEAR     37  34  89 E3        30.19R
SAFFORD        CLEAR     41  23  48 N6        30.17R
$$

AZZ020-021-025-026-031-050900-
SOUTHWEST ARIZONA

CITY           SKY/WX    TMP DP  RH WIND       PRES   REMARKS
YUMA           CLEAR     53  38  56 CALM      30.18R
$$

CAZ031-033-041-043-047-048-061-050900-
SOUTHERN CALIFORNIA

CITY           SKY/WX    TMP DP  RH WIND       PRES   REMARKS
DOWNTOWN L.A.  CLEAR     57  39  51 CALM      30.16R
L.A. AIRPORT   PTCLDY    56  47  71 VRB5      30.16S
SAN DIEGO      CLEAR     57  47  69 CALM      30.18R
BURBANK        CLEAR     49  29  46 N3        30.16R
ONTARIO        MOCLDY    50  37  61 CALM      30.16S
RIVERSIDE      CLEAR     50  28  42 NE5       30.17S
PALM SPRINGS   CLEAR     58  21  24 W6        30.21S
EL CENTRO NAS  CLEAR     48  34  58 N6        30.18R
IMPERIAL       CLEAR     51  35  54 CALM      30.18R
BLYTHE         CLEAR     52  35  52 N9        30.19S
$$

NVZ020-UTZ003-050900-
SOUTHERN NEVADA-UTAH

CITY           SKY/WX    TMP DP  RH WIND       PRES   REMARKS
LAS VEGAS      CLEAR     50  23  34 S5        30.26R
SALT LAKE CITY CLEAR     29  18  63 SE9       30.36R WCI  20
$$

NMZ009-TXZ055-050900-
NEW MEXICO-WEST TEXAS

CITY           SKY/WX    TMP DP  RH WIND       PRES   REMARKS
ALBUQUERQUE    CLEAR     27  19  72 N8        30.28R WCI  19
EL PASO        CLEAR     35  27  72 SE5       30.25R WCI  31
$$


........................KEY........................
SKY/WX - SKY CONDITION/WEATHER
TMP    - TEMPERATURE IN FAHRENHEIT
DP     - DEW POINT IN FAHRENHEIT
RH     - RELATIVE HUMIDITY IN PERCENT
WIND   - DIRECTION AND SPEED IN MILES PER HOUR (MPH)
VRB    - VARIABLE WIND DIRECTION
PRES   - MEAN SEA LEVEL PRESSURE IN INCHES OF MERCURY
         F - FALLING PRESSURE   R - RISING PRESSURE
         S - STEADY PRESSURE
VSB    - VISIBILITY IN MILES
HX     - HEAT INDEX IN FAHRENHEIT
WCI    - WIND CHILL INDEX IN FAHRENHEIT
TC     - TEMPERATURE IN CELSIUS WHICH IS ALSO KNOWN AS
         TEMPERATURE IN CENTIGRADE
AFB    - AIR FORCE BASE
         LUKE AFB IS LUKE AIR FORCE BASE
         DAVIS-MONTHAN IS DAVIS-MONTHAN AIR FORCE BASE
NAS    - NAVAL AIR STATION
         EL CENTRO NAS IS EL CENTRO NAVAL AIR STATION
N/A    - NOT AVAILABLE




USA.gov is the U.S. government's official web portal to all federal, state and local government web resources and services.